Weather History for Bentonville, AR

Change the Weather History Date:

Thursday, October 18, 2012

  Actual Average Record
Temperature  
Mean Temperature 52 °F -  
Max Temperature 62 °F 68 °F 89 °F (1950)
Min Temperature 42 °F 43 °F 25 °F (1948)
Degree Days  
Heating Degree Days 13    
Growing Degree Days 2 (Base 50)    
Moisture  
Dew Point 30 °F    
Average Humidity 44    
Maximum Humidity 76    
Minimum Humidity 22    
Precipitation  
Precipitation 0.00 in - - ()
Sea Level Pressure  
Sea Level Pressure 29.80 in    
Wind  
Wind Speed 9 mph (West)    
Max Wind Speed 23 mph    
Max Gust Speed 34 mph    
Visibility 10 miles    
Events      
Averages and records for this station are not official NWS values.
T = Trace of Precipitation, MM = Missing Value Source: NWS Daily Summary

Daily Weather History Graph

Daily Weather History Graph

Search for Another Location

Airport:

Trip Planner

Search our weather history database for the weather conditions in past years. The results will help you decide how hot, cold, wet, or windy it might be!

Date:

Astronomy

Oct. 18, 2012 Rise Set
Actual Time 7:27 AM CDT 6:36 PM CDT
Civil Twilight 7:01 AM CDT 7:02 PM CDT
Nautical Twilight 6:31 AM CDT 7:32 PM CDT
Astronomical Twilight 6:01 AM CDT 8:01 PM CDT
Moon 11:03 AM CDT (10/18) 9:17 PM CDT (10/18)
Length of Visible Light 12h 01m
Length of Day
11h 09m
Waxing Crescent, 14% of the Moon is Illuminated
Oct 18
Waxing Crescent
Oct 21
First Quarter
Oct 29
Full
Nov 6
Last Quarter
Nov 13
New

Hourly Weather History & Observations

Time (CDT) Temp. Windchill Dew Point Humidity Pressure Visibility Wind Dir Wind Speed Gust Speed Precip Events Conditions
12:15 AM 46.4 °F 43.5 °F 39.2 °F 76% 29.75 in 10.0 mi SW 5.8 mph - N/A   Clear
12:35 AM 50.0 °F - 39.2 °F 66% 29.77 in 10.0 mi West 5.8 mph - N/A   Clear
12:55 AM 50.0 °F - 37.4 °F 62% 29.78 in 10.0 mi West 4.6 mph - N/A   Clear
1:15 AM 50.0 °F - 37.4 °F 62% 29.77 in 10.0 mi West 3.5 mph - N/A   Clear
1:35 AM 48.2 °F - 37.4 °F 66% 29.78 in 10.0 mi WSW 3.5 mph - N/A   Clear
1:36 AM 48.2 °F - 37.4 °F 66% 29.78 in 10.0 mi WSW 3.5 mph - N/A   Clear
1:55 AM 44.6 °F 42.2 °F 35.6 °F 71% 29.78 in 10.0 mi SW 4.6 mph - N/A   Clear
2:15 AM 46.4 °F 43.5 °F 35.6 °F 66% 29.78 in 10.0 mi SW 5.8 mph - N/A   Clear
2:55 AM 44.6 °F 42.2 °F 35.6 °F 71% 29.79 in 10.0 mi SW 4.6 mph - N/A   Clear
3:15 AM 44.6 °F 43.1 °F 35.6 °F 71% 29.79 in 10.0 mi SW 3.5 mph - N/A   Clear
3:56 AM 44.6 °F 41.4 °F 35.6 °F 71% 29.78 in 10.0 mi SW 5.8 mph - N/A   Clear
4:15 AM 44.6 °F 43.1 °F 35.6 °F 71% 29.79 in 10.0 mi WSW 3.5 mph - N/A   Clear
4:35 AM 42.8 °F 40.1 °F 33.8 °F 70% 29.79 in 10.0 mi SW 4.6 mph - N/A   Clear
5:15 AM 42.8 °F 40.1 °F 33.8 °F 70% 29.79 in 10.0 mi WSW 4.6 mph - N/A   Clear
5:35 AM 44.6 °F 41.4 °F 33.8 °F 66% 29.79 in 10.0 mi SW 5.8 mph - N/A   Clear
5:55 AM 42.8 °F 38.6 °F 33.8 °F 70% 29.80 in 10.0 mi SW 6.9 mph - N/A   Clear
6:35 AM 44.6 °F 42.2 °F 33.8 °F 66% 29.81 in 10.0 mi WSW 4.6 mph - N/A   Clear
6:55 AM 44.6 °F 41.4 °F 33.8 °F 66% 29.81 in 10.0 mi West 5.8 mph - N/A   Clear
7:35 AM 46.4 °F 41.5 °F 32.0 °F 57% 29.82 in 10.0 mi West 10.4 mph - N/A   Clear
7:55 AM 48.2 °F - 30.2 °F 50% 29.83 in 10.0 mi West 10.4 mph - N/A   Clear
8:15 AM 46.4 °F 42.4 °F 30.2 °F 53% 29.83 in 10.0 mi West 8.1 mph - N/A   Clear
8:35 AM 46.4 °F 42.4 °F 30.2 °F 53% 29.83 in 10.0 mi West 8.1 mph - N/A   Clear
8:55 AM 48.2 °F - 32.0 °F 54% 29.83 in 10.0 mi West 10.4 mph - N/A   Clear
9:15 AM 51.8 °F - 32.0 °F 47% 29.85 in 10.0 mi WNW 13.8 mph 18.4 mph N/A   Clear
9:55 AM 53.6 °F - 30.2 °F 41% 29.85 in 10.0 mi WNW 12.7 mph 17.3 mph N/A   Clear
10:15 AM 55.4 °F - 30.2 °F 38% 29.85 in 10.0 mi WNW 15.0 mph 24.2 mph N/A   Clear
10:35 AM 55.4 °F - 28.4 °F 36% 29.85 in 10.0 mi NW 20.7 mph 26.5 mph N/A   Clear
10:56 AM 55.4 °F - 28.4 °F 36% 29.86 in 10.0 mi NW 13.8 mph 26.5 mph N/A   Clear
11:15 AM 57.2 °F - 26.6 °F 31% 29.85 in 10.0 mi WNW 13.8 mph 23.0 mph N/A   Clear
11:35 AM 57.2 °F - 28.4 °F 33% 29.85 in 10.0 mi WNW 15.0 mph 23.0 mph N/A   Clear
11:55 AM 59.0 °F - 26.6 °F 29% 29.84 in 10.0 mi WNW 18.4 mph 25.3 mph N/A   Clear
12:15 PM 59.0 °F - 28.4 °F 31% 29.84 in 10.0 mi WNW 17.3 mph 25.3 mph N/A   Clear
12:35 PM 60.8 °F - 26.6 °F 27% 29.83 in 10.0 mi WNW 17.3 mph 28.8 mph N/A   Clear
1:15 PM 60.8 °F - 26.6 °F 27% 29.81 in 10.0 mi West 17.3 mph 27.6 mph N/A   Clear
1:35 PM 60.8 °F - 26.6 °F 27% 29.81 in 9.0 mi West 21.9 mph 31.1 mph N/A   Clear
1:56 PM 62.6 °F - 26.6 °F 26% 29.81 in 10.0 mi West 21.9 mph 33.4 mph N/A   Clear
2:15 PM 62.6 °F - 26.6 °F 26% 29.79 in 10.0 mi West 19.6 mph 29.9 mph N/A   Clear
2:35 PM 62.6 °F - 28.4 °F 27% 29.79 in 10.0 mi West 20.7 mph 27.6 mph N/A   Clear
2:55 PM 62.6 °F - 26.6 °F 26% 29.78 in 10.0 mi West 13.8 mph 25.3 mph N/A   Clear
3:15 PM 62.6 °F - 26.6 °F 26% 29.78 in 10.0 mi West 19.6 mph 28.8 mph N/A   Clear
3:35 PM 62.6 °F - 24.8 °F 24% 29.78 in 10.0 mi West 19.6 mph 26.5 mph N/A   Clear
3:55 PM 62.6 °F - 24.8 °F 24% 29.78 in 10.0 mi West 23.0 mph 29.9 mph N/A   Clear
4:15 PM 62.6 °F - 24.8 °F 24% 29.78 in 10.0 mi West 20.7 mph 34.5 mph N/A   Clear
4:35 PM 62.6 °F - 24.8 °F 24% 29.77 in 10.0 mi WNW 18.4 mph 27.6 mph N/A   Clear
4:56 PM 62.6 °F - 23.0 °F 22% 29.77 in 10.0 mi WNW 16.1 mph 29.9 mph N/A   Clear
5:35 PM 62.6 °F - 24.8 °F 24% 29.77 in 10.0 mi West 18.4 mph 21.9 mph N/A   Clear
6:15 PM 60.8 °F - 24.8 °F 25% 29.77 in 10.0 mi West 10.4 mph 17.3 mph N/A   Clear
6:35 PM 59.0 °F - 24.8 °F 27% 29.77 in 10.0 mi West 9.2 mph - N/A   Clear
7:15 PM 57.2 °F - 26.6 °F 31% 29.78 in 10.0 mi West 8.1 mph - N/A   Clear
7:35 PM 57.2 °F - 26.6 °F 31% 29.78 in 10.0 mi West 8.1 mph - N/A   Clear
7:55 PM 55.4 °F - 28.4 °F 36% 29.78 in 10.0 mi West 5.8 mph - N/A   Clear
8:35 PM 55.4 °F - 28.4 °F 36% 29.78 in 10.0 mi WSW 5.8 mph - N/A   Overcast
8:55 PM 57.2 °F - 28.4 °F 33% 29.78 in 10.0 mi West 9.2 mph - N/A   Overcast
9:35 PM - - - N/A% 29.77 in 8.0 mi West 9.2 mph - N/A   Overcast
10:35 PM 57.2 °F - 26.6 °F 31% 29.78 in 5.0 mi West 10.4 mph 16.1 mph N/A   Overcast
10:55 PM 57.2 °F - 24.8 °F 29% 29.78 in 5.0 mi West 11.5 mph - N/A   Overcast
11:35 PM 57.2 °F - 24.8 °F 29% 29.78 in 5.0 mi West 10.4 mph - N/A   Overcast
11:55 PM 57.2 °F - 24.8 °F 29% 29.77 in 5.0 mi West 12.7 mph - N/A   Overcast